User: anonymous   Login
Location: Unspecified
(0.0000°N, 0.0000°E)
Time: 11:37:38
(UTC+02:00)
Language:

ATLAS 3B CENTAUR R/B - Orbit

View from above orbital plane
View from above orbital plane
View from above satellite
View from above satellite

Ground track
Ground track

The orbit data is extracted from the following two-line orbital elements,

1 28118U 03057B   16208.41424133  .00051941  00000-0  80390-3 0  9997
2 28118  28.1326 242.3007 3258756 338.1035  10.6757  8.96031727259792
Epoch (UTC): 26 July 2016 09:56:30
Eccentricity: 0.3258756
inclination: 28.1326°
perigee height: 222 km
apogee height: 6604 km
right ascension of ascending node: 242.3007°
argument of perigee: 338.1035°
revolutions per day: 8.96031727
mean anomaly at epoch: 10.6757°
orbit number at epoch: 25979

The dashed part of the orbit path shows where the satellite is in the earth's shadow,  

DLR